• In Russia
  • List of Countries
  • For 7 days
  • Water Temperature
  • Weather Map
  • Weather Widgets
  • user-avatar
    Login

    Hourly Weather Megri

    Today, 23 January, Thursday

    Time Temperature Precipitation Wind Pressure Humidity
    00:00 -9°C° 0 mm 1 mps 616 mmHg 76%
    01:00 -9°C° 0 mm 1 mps 616 mmHg 75%
    02:00 -10°C° 0 mm 1 mps 615 mmHg 74%
    03:00 -10°C° 0 mm 1 mps 615 mmHg 73%
    04:00 -12°C° 0 mm 2 mps 615 mmHg 73%
    05:00 -12°C° 0 mm 2 mps 614 mmHg 72%
    06:00 -12°C° 0 mm 2 mps 614 mmHg 71%
    07:00 -10°C° 0 mm 2 mps 614 mmHg 74%
    08:00 -9°C° 0 mm 2 mps 615 mmHg 76%
    09:00 -8°C° 0 mm 2 mps 615 mmHg 78%
    10:00 -9°C° 0 mm 3 mps 615 mmHg 79%
    11:00 -8°C° 0 mm 3 mps 614 mmHg 80%
    12:00 -7°C° 0 mm 3 mps 614 mmHg 81%
    13:00 -7°C° 0 mm 3 mps 614 mmHg 83%
    14:00 -7°C° 0 mm 3 mps 614 mmHg 85%
    15:00 -6°C° 0 mm 3 mps 613 mmHg 87%
    16:00 -7°C° 0 mm 3 mps 613 mmHg 87%
    17:00 -8°C° 0 mm 3 mps 613 mmHg 87%
    18:00 -9°C° 0 mm 3 mps 613 mmHg 87%
    19:00 -8°C° 0 mm 2 mps 614 mmHg 87%
    20:00 -7°C° 0 mm 2 mps 614 mmHg 87%
    21:00 -7°C° 0 mm 2 mps 614 mmHg 86%
    22:00 -7°C° 0.1 mm 2 mps 615 mmHg 87%
    23:00 -7°C° 0.1 mm 2 mps 615 mmHg 88%

    Tomorrow, 24 January, Friday

    Time Temperature Precipitation Wind Pressure Humidity
    00:00 -7°C° 0.1 mm 2 mps 615 mmHg 88%
    01:00 -7°C° 0.2 mm 2 mps 615 mmHg 90%
    02:00 -7°C° 0.2 mm 2 mps 615 mmHg 92%
    03:00 -6°C° 0.2 mm 1 mps 615 mmHg 94%
    04:00 -6°C° 0.4 mm 1 mps 615 mmHg 95%
    05:00 -6°C° 0.4 mm 1 mps 615 mmHg 95%
    06:00 -6°C° 0.4 mm 1 mps 615 mmHg 95%
    07:00 -6°C° 0.3 mm 1 mps 616 mmHg 95%
    08:00 -6°C° 0.3 mm 1 mps 616 mmHg 94%
    09:00 -4°C° 0.3 mm 1 mps 617 mmHg 94%
    10:00 -4°C° 0.2 mm 1 mps 617 mmHg 94%
    11:00 -4°C° 0.2 mm 1 mps 617 mmHg 93%
    12:00 -3°C° 0.2 mm 1 mps 617 mmHg 93%
    13:00 -5°C° 0.4 mm 2 mps 617 mmHg 93%
    14:00 -6°C° 0.4 mm 2 mps 617 mmHg 93%
    15:00 -6°C° 0.4 mm 2 mps 617 mmHg 93%
    16:00 -7°C° 0.3 mm 2 mps 617 mmHg 93%
    17:00 -8°C° 0.3 mm 2 mps 617 mmHg 93%
    18:00 -9°C° 0.3 mm 2 mps 618 mmHg 93%
    19:00 -9°C° 0.2 mm 2 mps 618 mmHg 93%
    20:00 -10°C° 0.2 mm 2 mps 619 mmHg 92%
    21:00 -10°C° 0.2 mm 2 mps 619 mmHg 92%
    22:00 -10°C° 0.1 mm 2 mps 620 mmHg 91%
    23:00 -10°C° 0.1 mm 1 mps 620 mmHg 91%

    Day after tomorrow, 25 January, Saturday

    Time Temperature Precipitation Wind Pressure Humidity
    00:00 -10°C° 0.1 mm 1 mps 621 mmHg 90%
    01:00 -10°C° 0 mm 1 mps 621 mmHg 89%
    02:00 -10°C° 0 mm 1 mps 621 mmHg 89%
    03:00 -11°C° 0 mm 1 mps 621 mmHg 89%
    04:00 -11°C° 0 mm 1 mps 621 mmHg 89%
    05:00 -12°C° 0 mm 1 mps 621 mmHg 89%
    06:00 -13°C° 0 mm 1 mps 621 mmHg 89%
    07:00 -12°C° 0 mm 1 mps 622 mmHg 88%
    08:00 -11°C° 0 mm 1 mps 622 mmHg 87%
    09:00 -11°C° 0 mm 1 mps 623 mmHg 85%
    10:00 -10°C° 0 mm 1 mps 623 mmHg 82%
    11:00 -9°C° 0 mm 1 mps 623 mmHg 80%
    12:00 -8°C° 0 mm 1 mps 623 mmHg 77%
    13:00 -8°C° 0 mm 1 mps 623 mmHg 78%
    14:00 -7°C° 0 mm 1 mps 623 mmHg 80%
    15:00 -7°C° 0 mm 1 mps 622 mmHg 81%
    16:00 -9°C° 0 mm 1 mps 622 mmHg 80%
    17:00 -11°C° 0 mm 1 mps 621 mmHg 78%
    18:00 -12°C° 0 mm 1 mps 620 mmHg 76%
    19:00 -12°C° 0 mm 1 mps 620 mmHg 70%
    20:00 -14°C° 0 mm 2 mps 621 mmHg 64%
    21:00 -15°C° 0 mm 2 mps 621 mmHg 58%
    22:00 -14°C° 0 mm 2 mps 620 mmHg 56%
    23:00 -14°C° 0 mm 2 mps 620 mmHg 54%

    26 January, Sunday

    Time Temperature Precipitation Wind Pressure Humidity
    00:00 -14°C° 0 mm 2 mps 620 mmHg 52%
    01:00 -14°C° 0 mm 2 mps 620 mmHg 53%
    02:00 -14°C° 0 mm 2 mps 620 mmHg 53%
    03:00 -14°C° 0 mm 2 mps 620 mmHg 53%
    04:00 -14°C° 0 mm 2 mps 620 mmHg 53%
    05:00 -14°C° 0 mm 2 mps 620 mmHg 52%
    06:00 -14°C° 0 mm 2 mps 620 mmHg 52%
    07:00 -13°C° 0 mm 2 mps 621 mmHg 55%
    08:00 -12°C° 0 mm 2 mps 621 mmHg 59%
    09:00 -10°C° 0 mm 2 mps 622 mmHg 62%
    10:00 -9°C° 0 mm 2 mps 622 mmHg 62%
    11:00 -8°C° 0 mm 2 mps 622 mmHg 62%
    12:00 -7°C° 0 mm 2 mps 622 mmHg 62%
    13:00 -7°C° 0 mm 2 mps 622 mmHg 65%
    14:00 -7°C° 0 mm 2 mps 621 mmHg 68%
    15:00 -6°C° 0 mm 2 mps 621 mmHg 70%
    16:00 -8°C° 0 mm 2 mps 621 mmHg 66%
    17:00 -9°C° 0 mm 2 mps 620 mmHg 62%
    18:00 -10°C° 0 mm 2 mps 620 mmHg 58%
    19:00 -10°C° 0 mm 2 mps 620 mmHg 56%
    20:00 -10°C° 0 mm 2 mps 620 mmHg 55%
    21:00 -10°C° 0 mm 2 mps 620 mmHg 53%
    22:00 -10°C° 0 mm 2 mps 620 mmHg 53%
    23:00 -10°C° 0 mm 2 mps 620 mmHg 53%

    27 January, Monday

    Time Temperature Precipitation Wind Pressure Humidity
    00:00 -9°C° 0 mm 1 mps 620 mmHg 53%
    01:00 -9°C° 0 mm 1 mps 620 mmHg 53%
    02:00 -9°C° 0 mm 1 mps 621 mmHg 53%
    03:00 -9°C° 0 mm 1 mps 621 mmHg 53%
    04:00 -9°C° 0 mm 1 mps 621 mmHg 54%
    05:00 -9°C° 0 mm 1 mps 621 mmHg 55%
    06:00 -8°C° 0 mm 1 mps 622 mmHg 55%
    07:00 -8°C° 0 mm 1 mps 623 mmHg 58%
    08:00 -7°C° 0 mm 1 mps 623 mmHg 61%
    09:00 -7°C° 0 mm 0 mps 624 mmHg 64%
    10:00 -6°C° 0 mm 1 mps 625 mmHg 63%
    11:00 -4°C° 0 mm 1 mps 625 mmHg 62%
    12:00 -3°C° 0 mm 1 mps 625 mmHg 61%
    13:00 -3°C° 0 mm 1 mps 625 mmHg 65%
    14:00 -3°C° 0 mm 1 mps 626 mmHg 69%
    15:00 -2°C° 0 mm 1 mps 626 mmHg 73%
    16:00 -4°C° 0 mm 1 mps 625 mmHg 73%
    17:00 -7°C° 0 mm 1 mps 625 mmHg 73%
    18:00 -9°C° 0 mm 1 mps 625 mmHg 73%
    19:00 -9°C° 0 mm 1 mps 625 mmHg 70%
    20:00 -9°C° 0 mm 1 mps 625 mmHg 67%
    21:00 -9°C° 0 mm 1 mps 625 mmHg 64%
    22:00 -9°C° 0 mm 1 mps 625 mmHg 63%
    23:00 -9°C° 0 mm 1 mps 625 mmHg 61%

    28 January, Tuesday

    Time Temperature Precipitation Wind Pressure Humidity
    00:00 -9°C° 0 mm 1 mps 625 mmHg 60%
    01:00 -9°C° 0 mm 1 mps 625 mmHg 60%
    02:00 -9°C° 0 mm 1 mps 625 mmHg 60%
    03:00 -9°C° 0 mm 1 mps 625 mmHg 59%
    04:00 -9°C° 0 mm 1 mps 625 mmHg 59%
    05:00 -9°C° 0 mm 1 mps 625 mmHg 59%
    06:00 -9°C° 0 mm 1 mps 625 mmHg 58%
    07:00 -8°C° 0 mm 1 mps 625 mmHg 61%
    08:00 -7°C° 0 mm 1 mps 626 mmHg 63%
    09:00 -6°C° 0 mm 1 mps 626 mmHg 66%
    10:00 -4°C° 0 mm 1 mps 626 mmHg 66%
    11:00 -3°C° 0 mm 1 mps 626 mmHg 67%
    12:00 -4°C° 0 mm 2 mps 626 mmHg 67%
    13:00 -2°C° 0 mm 1 mps 625 mmHg 70%
    14:00 -2°C° 0 mm 1 mps 625 mmHg 73%
    15:00 -2°C° 0 mm 1 mps 624 mmHg 76%
    16:00 -4°C° 0 mm 1 mps 623 mmHg 73%
    17:00 -6°C° 0 mm 1 mps 623 mmHg 70%
    18:00 -8°C° 0 mm 1 mps 622 mmHg 67%
    19:00 -8°C° 0 mm 1 mps 623 mmHg 66%
    20:00 -8°C° 0 mm 1 mps 623 mmHg 65%
    21:00 -8°C° 0 mm 1 mps 623 mmHg 65%
    22:00 -8°C° 0 mm 1 mps 623 mmHg 66%
    23:00 -8°C° 0 mm 1 mps 623 mmHg 66%
    Show more